Bradford, PA

5:35 PM EDT on October 18, 2017 (GMT -0400)
Bradford Regional

Weather History for KBFD - February, 2014

Change the Weather History Date:

Sunday, February 2, 2014

  Actual Average Record
Temperature  
Mean Temperature 32 °F 22 °F  
Max Temperature 41 °F 30 °F 50 °F (1988)
Min Temperature 23 °F 14 °F -18 °F (1994)
Degree Days  
Heating Degree Days 33 38  
Month to date heating degree days 66 76  
Since 1 July heating degree days 4444 4487  
Cooling Degree Days 0 0  
Month to date cooling degree days 0 0  
Year to date cooling degree days 0 0  
Moisture  
Dew Point 27 °F    
Average Humidity 71    
Maximum Humidity 92    
Minimum Humidity 50    
Precipitation  
Precipitation 0.10 in 0.09 in 0.91 in (1973)
Month to date precipitation 0.12 0.17  
Year to date precipitation 2.06 3.46  
Sea Level Pressure  
Sea Level Pressure 29.97 in    
Wind  
Wind Speed 7 mph (WNW)    
Max Wind Speed 16 mph    
Max Gust Speed 18 mph    
Visibility 6 miles    
Events Rain , Snow    
T = Trace of Precipitation, MM = Missing Value Source: NWS Daily Summary

Daily Weather History Graph

Daily Weather History Graph

Search for Another Location

Airport or City:

Trip Planner

Search our weather history database for the weather conditions in past years. The results will help you decide how hot, cold, wet, or windy it might be!

Date:

Astronomy

Feb. 02, 2014 Rise Set
Actual Time 7:25 AM EST 5:31 PM EST
Civil Twilight 6:56 AM EST 6:00 PM EST
Nautical Twilight 6:23 AM EST 6:33 PM EST
Astronomical Twilight 5:50 AM EST 7:06 PM EST
Moon 8:47 AM EST (2/2) 9:17 PM EST (2/2)
Length of Visible Light 11h 04m
Length of Day
10h 05m
Waxing Crescent, 11% of the Moon is Illuminated
Feb 2
Waxing Crescent
Feb 6
First Quarter
Feb 14
Full
Feb 22
Last Quarter
Mar 1
New

Hourly Weather History & Observations

Time (EST) Temp. Windchill Dew Point Humidity Pressure Visibility Wind Dir Wind Speed Gust Speed Precip Events Conditions
12:53 AM 39.0 °F 36.8 °F 28.0 °F 65% 29.88 in 10.0 mi SSW 3.5 mph - 0.00 in Rain Light Rain
1:05 AM 39.9 °F 35.8 °F 28.9 °F 65% 29.84 in 10.0 mi SW 5.8 mph - 0.00 in Rain Light Rain
1:50 AM 39.2 °F 32.5 °F 32.0 °F 75% 29.84 in 10.0 mi WSW 10.4 mph - 0.01 in Rain Light Rain
1:53 AM 39.9 °F 34.5 °F 33.1 °F 77% 29.88 in 10.0 mi WSW 8.1 mph - 0.01 in Rain Light Rain
2:41 AM 39.0 °F 35.7 °F 35.1 °F 86% 29.85 in 7.0 mi WSW 4.6 mph - 0.01 in Rain Light Rain
2:53 AM 39.0 °F 34.8 °F 35.1 °F 86% 29.89 in 9.0 mi WSW 5.8 mph - 0.01 in Rain Light Rain
3:39 AM 37.9 °F 33.5 °F 36.0 °F 93% 29.85 in 7.0 mi West 5.8 mph - 0.00 in Rain Light Rain
3:53 AM 37.9 °F 34.4 °F 36.0 °F 93% 29.89 in 5.0 mi West 4.6 mph - 0.01 in Rain Light Rain
4:53 AM 37.9 °F 33.5 °F 36.0 °F 93% 29.89 in 7.0 mi West 5.8 mph - 0.01 in Rain Light Rain
5:24 AM 37.0 °F 30.4 °F 35.1 °F 93% 29.86 in 8.0 mi West 9.2 mph - 0.01 in Rain Light Rain
5:53 AM 36.0 °F 28.0 °F 32.0 °F 86% 29.91 in 9.0 mi WNW 11.5 mph - 0.02 in Rain Light Rain
6:03 AM 35.1 °F 29.3 °F 30.9 °F 85% 29.86 in 7.0 mi WNW 6.9 mph - 0.00 in   Unknown
6:33 AM 35.1 °F 30.1 °F 32.0 °F 89% 29.87 in 10.0 mi WNW 5.8 mph - 0.00 in   Overcast
6:53 AM 34.0 °F 28.8 °F 30.9 °F 89% 29.92 in 2.5 mi WNW 5.8 mph - 0.01 in Snow Light Snow
7:19 AM 33.1 °F 28.7 °F 30.9 °F 92% 29.89 in 3.0 mi NW 4.6 mph - 0.01 in Snow Light Snow
7:42 AM 33.1 °F 27.7 °F 30.9 °F 92% 29.90 in 8.0 mi WNW 5.8 mph - 0.01 in   Overcast
7:51 AM 33.8 °F 27.0 °F 30.2 °F 87% 29.89 in 9.0 mi NW 8.1 mph - 0.01 in Snow Light Snow
7:53 AM 33.1 °F 26.1 °F 30.0 °F 89% 29.94 in 7.0 mi WNW 8.1 mph - 0.01 in Snow Light Snow
8:15 AM 33.1 °F 26.9 °F 30.0 °F 89% 29.92 in 9.0 mi WNW 6.9 mph - 0.00 in   Overcast
8:53 AM 32.0 °F 25.6 °F 28.9 °F 88% 29.98 in 8.0 mi West 6.9 mph - 0.00 in   Overcast
9:00 AM 32.0 °F 25.6 °F 28.9 °F 88% 29.94 in 3.0 mi NW 6.9 mph - 0.00 in Snow Light Snow
9:09 AM 32.0 °F 27.5 °F 28.9 °F 88% 29.94 in 1.8 mi WNW 4.6 mph - 0.01 in Snow Light Snow
9:31 AM 32.0 °F 27.5 °F 28.0 °F 85% 29.94 in 2.5 mi West 4.6 mph - 0.01 in Snow Light Snow
9:43 AM 32.0 °F 27.5 °F 28.0 °F 85% 29.94 in 2.5 mi WNW 4.6 mph - 0.01 in Snow Light Snow
9:53 AM 32.0 °F 27.5 °F 28.0 °F 85% 30.00 in 1.2 mi WNW 4.6 mph - 0.01 in Snow Light Snow
10:12 AM 32.0 °F 28.7 °F 28.0 °F 85% 29.95 in 2.0 mi West 3.5 mph - 0.00 in Snow Light Snow
10:18 AM 32.0 °F 27.5 °F 28.0 °F 85% 29.95 in 1.5 mi WNW 4.6 mph - 0.00 in Snow Light Snow
10:53 AM 32.0 °F 27.5 °F 28.0 °F 85% 29.99 in 2.5 mi West 4.6 mph - 0.00 in Snow Light Snow
11:02 AM 32.0 °F 28.7 °F 28.0 °F 85% 29.96 in 4.0 mi West 3.5 mph - 0.00 in Snow Light Snow
11:22 AM 32.0 °F 26.4 °F 28.0 °F 85% 29.95 in 2.0 mi West 5.8 mph - 0.01 in Snow Light Snow
11:33 AM 32.0 °F 26.4 °F 28.0 °F 85% 29.94 in 4.0 mi WNW 5.8 mph - 0.01 in Snow Light Snow
11:49 AM 32.0 °F 28.7 °F 28.4 °F 87% 29.93 in 9.0 mi WSW 3.5 mph - 0.01 in   Overcast
11:53 AM 32.0 °F 28.7 °F 28.0 °F 85% 29.97 in 9.0 mi WSW 3.5 mph - 0.01 in   Overcast
12:24 PM 32.0 °F 25.6 °F 27.0 °F 82% 29.94 in 2.0 mi WNW 6.9 mph - 0.00 in Snow Light Snow
12:32 PM 32.0 °F 24.2 °F 27.0 °F 82% 29.94 in 1.5 mi WNW 9.2 mph - 0.00 in Snow Light Snow
12:34 PM 32.0 °F 24.2 °F 27.0 °F 82% 29.94 in 1.8 mi NW 9.2 mph - 0.00 in Snow Light Snow
12:40 PM 30.9 °F 23.5 °F 27.0 °F 85% 29.94 in 3.0 mi WNW 8.1 mph - 0.00 in Snow Light Snow
12:53 PM 30.9 °F 22.8 °F 27.0 °F 85% 29.98 in 8.0 mi NW 9.2 mph - 0.00 in   Overcast
1:14 PM 30.9 °F 22.8 °F 27.0 °F 85% 29.94 in 9.0 mi WNW 9.2 mph - N/A   Overcast
1:24 PM 30.9 °F 23.5 °F 27.0 °F 85% 29.94 in 8.0 mi WNW 8.1 mph - N/A   Overcast
1:53 PM 30.9 °F 24.3 °F 27.0 °F 85% 29.99 in 4.0 mi WNW 6.9 mph - 0.00 in   Overcast
2:01 PM 30.9 °F 22.8 °F 27.0 °F 85% 29.94 in 1.8 mi NW 9.2 mph - 0.00 in Snow Light Snow
2:36 PM 30.0 °F 23.2 °F 26.1 °F 85% 29.96 in 1.5 mi WNW 6.9 mph - 0.00 in Snow Light Snow
2:51 PM 30.2 °F 22.6 °F 26.6 °F 86% 29.96 in 1.0 mi NW 8.1 mph - 0.00 in Snow Light Snow
2:53 PM 30.0 °F 22.4 °F 26.1 °F 85% 30.01 in 1.0 mi NW 8.1 mph - 0.00 in Snow Light Snow
3:17 PM 30.0 °F 21.7 °F 26.1 °F 85% 29.96 in 2.5 mi NW 9.2 mph - 0.00 in Snow Light Snow
3:35 PM 30.0 °F 24.1 °F 25.0 °F 82% 29.96 in 1.5 mi WNW 5.8 mph - 0.00 in Snow Light Snow
3:53 PM 30.0 °F 24.1 °F 26.1 °F 85% 30.01 in 1.5 mi West 5.8 mph - 0.00 in Snow Light Snow
4:06 PM 28.9 °F 21.1 °F 24.1 °F 82% 29.97 in 3.0 mi WNW 8.1 mph - 0.00 in Snow Light Snow
4:53 PM 28.9 °F 19.8 °F 23.0 °F 78% 30.05 in 8.0 mi WNW 10.4 mph - 0.00 in   Overcast
5:07 PM 28.0 °F 18.6 °F 24.1 °F 85% 30.02 in 7.0 mi NW 10.4 mph - N/A   Overcast
5:53 PM 27.0 °F 18.7 °F 23.0 °F 85% 30.10 in 7.0 mi WNW 8.1 mph - N/A   Overcast
6:53 PM 26.1 °F 15.6 °F 21.9 °F 84% 30.12 in 9.0 mi NW 11.5 mph - N/A   Overcast
7:32 PM 26.1 °F 16.8 °F 21.0 °F 81% 30.05 in 10.0 mi NNW 9.2 mph - N/A   Overcast
7:53 PM 25.0 °F 17.1 °F 21.0 °F 85% 30.14 in 10.0 mi NNW 6.9 mph - N/A   Overcast
8:06 PM 25.0 °F 14.8 °F 19.9 °F 81% 30.08 in 10.0 mi NW 10.4 mph - N/A   Overcast
8:26 PM 25.0 °F 14.2 °F 19.0 °F 78% 30.08 in 10.0 mi NNW 11.5 mph - N/A   Overcast
8:41 PM 25.0 °F 16.3 °F 19.9 °F 81% 30.07 in 10.0 mi NNW 8.1 mph - N/A   Overcast
8:53 PM 24.1 °F 14.4 °F 19.9 °F 84% 30.14 in 10.0 mi NW 9.2 mph - N/A   Overcast
9:25 PM 24.1 °F 16.0 °F 19.0 °F 81% 30.09 in 10.0 mi NNW 6.9 mph - N/A   Overcast
9:53 PM 24.1 °F 19.7 °F 19.0 °F 81% 30.16 in 10.0 mi NW 3.5 mph - N/A   Overcast
10:53 PM 23.0 °F 14.7 °F 18.0 °F 81% 30.17 in 10.0 mi NW 6.9 mph - N/A   Overcast
11:10 PM 23.0 °F 15.8 °F 18.0 °F 81% 30.08 in 10.0 mi NNW 5.8 mph - N/A   Overcast
11:53 PM 23.0 °F 14.7 °F 17.1 °F 78% 30.14 in 10.0 mi NNW 6.9 mph - N/A   Overcast